Regional Weather Roundup
Issued by NWS

Home | Current Version | Previous Version | Text Only | Print | Product List | Glossary On
Versions: 1 2 3 4 5 6 7 8 9 10 11 12 13 14 15 16 17 18 19 20 21 22 23 24 25 26 27 28 29 30 31 32 33 34 35 36 37 38 39 40 41 42 43 44 45 46 47 48 49 50
000
ASUS42 KFFC 290203
RWRGA
WEATHER ROUNDUP FOR GEORGIA
NATIONAL WEATHER SERVICE PEACHTREE CITY GA
1000 PM EDT THU APR 28 2016

NOTE: "FAIR" INDICATES FEW OR NO CLOUDS BELOW 12,000 FEET WITH NO
SIGNIFICANT WEATHER AND/OR OBSTRUCTIONS TO VISIBILITY.

* = USE WITH CAUTION. THE STATIONS MARKED WITH AN ASTERISK MAY NOT
REPORT WEATHER SUCH AS PRECIPITATION, FOG, OR THUNDER AND ARE NOT
QUALITY CONTROLLED BY NWS.

THE REMARK "TC" DENOTES TEMPERATURE READING IN DEGREES CELSIUS.

GAZ001>058-290300-
NORTH GEORGIA

CITY           SKY/WX    TMP DP  RH WIND       PRES   REMARKS
ATLANTA        PTCLDY    74  60  61 W5        29.97R
ATHENS         CLEAR     73  60  63 SW3       29.94R
CHAMBLEE       CLEAR     72  55  55 W6        29.96R
PEACHTREE CITY PTCLDY    68  64  87 CALM      29.98R
ROME           CLEAR     69  56  62 CALM      29.95R
WEST ATLANTA   CLEAR     70  61  73 CALM      29.96R
GAINESVILLE    CLEAR     72  53  51 W7        29.98R
CARTERSVILLE   CLEAR     67  58  72 CALM      29.97R


CITY           SKY/WX    TMP DP  RH WIND       PRES   REMARKS
DALTON*        CLEAR     70  59  68 CALM      29.95R
KENNESAW*      CLEAR     73  52  46 CALM      29.93R
CANTON*        CLEAR     73  48  40 W3        29.98R
BLAIRSVILLE*     N/A    N/A N/A N/A MISG      30.00R
$$

GAZ059>098-102>109-290300-
CENTRAL GEORGIA

CITY           SKY/WX    TMP DP  RH WIND       PRES   REMARKS
AUGUSTA-BUSH   CLEAR     74  70  87 SW9       29.92R
AUGUSTA-DANIEL CLEAR     79  67  66 VRB6      29.94R
COLUMBUS       CLOUDY    75  68  78 SW5       29.97R
MACON          CLOUDY    75  66  73 SW5       29.96R


CITY           SKY/WX    TMP DP  RH WIND       PRES   REMARKS
LAGRANGE*      CLOUDY    71  71 100 S3        29.98R
SYLVANIA*      PTCLDY    73  70  90 CALM      29.96R
MILLEDGEVILLE* CLOUDY    73  66  78 CALM      29.95R
$$

GAZ099>101-110>166-290300-
SOUTH GEORGIA

CITY           SKY/WX    TMP DP  RH WIND       PRES   REMARKS
SAVANNAH       PTCLDY    75  67  76 SW6       29.96R
VALDOSTA       CLEAR     73  71  93 S3        29.99S
ALMA           PTCLDY    71  68  90 CALM      29.97R
ST SIMONS      PTCLDY    72  70  93 CALM      29.98R
ALBANY         PTCLDY    74  68  81 S7        29.99R
BRUNSWICK      PTCLDY    77  72  83 SW3       29.99R


CITY           SKY/WX    TMP DP  RH WIND       PRES   REMARKS
BAINBRIDGE*    CLEAR     72  70  94 CALM      29.98R
MOULTRIE*      PTCLDY    73  68  83 CALM      30.00R
VIDALIA*       PTCLDY    72  72 100 SW3       29.97S
WAYCROSS*      PTCLDY    71  70  95 SW5       29.97S
DOUGLAS*       CLOUDY    73  68  83 SW5       29.99R
$$



USA.gov is the U.S. government's official web portal to all federal, state and local government web resources and services.